OK5TVR-5 Weather Reports


Display with metric or nautical units.
time (UTC)temp
F
wind
direction
speed
MPH
gust
MPH
rain 1hr
in
rain 24hr
in
rain mn
in
humidity
%
barometer
mb
20260505211705 55 270 0.0 0.0 0.00 0.01 0.00 10 999.7
20260505210203 55 180 2.0 4.0 0.00 0.01 0.00 10 996.7
20260505204700 56 222 3.0 4.0 0.00 0.01 0.00 10 999.8
20260505203158 56 270 2.0 4.0 0.00 0.00 0.00 10 999.7
20260505201658 56 180 3.0 5.0 0.00 0.01 0.00 10 999.8
20260505200157 56 180 3.0 4.0 0.00 0.01 0.00 10 999.7
20260505194655 56 315 8.0 11.0 0.08 0.08 0.00 99 999.7
20260505193155 56 270 7.0 12.0 0.07 0.08 0.00 10 999.7
20260505191654 57 270 9.0 16.0 0.07 0.08 0.00 10 999.7
20260505184651 61 180 1.0 2.0 0.01 0.07 0.00 92 998.4
20260505183151 61 222 2.0 5.0 0.00 0.07 0.00 97 998.4
20260505181651 61 45 7.0 13.0 0.00 0.07 0.00 93 996.2
20260505180150 62 0 14.0 24.0 0.00 0.07 0.00 89 996.2
20260505174652 62 222 10.0 20.0 0.00 0.00 0.00
20260505173151 64 270 2.0 4.0 0.05 0.00 0.00 85 997.0
20260505171650 68 45 9.0 14.0 0.00 0.00 0.00 63 996.8
20260505170151 69 315 11.0 17.0 0.00 0.00 0.00 60 995.7
20260505164648 69 0 8.0 15.0 0.00 0.00 0.00 61 995.7
20260505163148 69 315 11.0 20.0 0.00 0.00 0.00 59 995.7
20260505161648 70 0 10.0 17.0 0.00 0.00 0.00 58 996.7
20260505160147 71 270 10.0 16.0 0.00 0.00 0.00 54 996.6
20260505153143 75 270 6.0 11.0 0.00 0.00 0.00 42 996.3
20260505151641 76 90 6.0 11.0 0.00 0.00 0.00 41 996.2
20260505150141 79 90 4.0 9.0 0.00 0.00 0.00 36 996.0
20260505140138 85 222 2.0 4.0 0.00 0.00 0.00 26 995.7
20260505140136 85 222 2.0 4.0 0.00 0.00 0.00 26 995.7
20260505130129 85 90 3.0 7.0 0.00 0.00 0.00 26 995.6
20260505124630 81 315 4.0 8.0 0.00 0.00 0.00 36 997.0
20260505123131 83 45 3.0 7.0 0.00 0.00 0.00 34 996.8
20260505121631 84 90 2.0 5.0 0.00 0.00 0.00
20260505120129 84 90 2.0 4.0 0.00 0.00 0.00 31 996.8
20260505114627 84 135 3.0 6.0 0.00 0.00 0.00 34 996.8
20260505113126 83 270 2.0 7.0 0.00 0.00 0.00 37 996.9
20260505111627 81 180 3.0 8.0 0.00 0.00 0.00 39 997.1
20260505110125 83 90 4.0 8.0 0.00 0.00 0.00 33 996.8
20260505101622 78 180 3.0 8.0 0.00 0.00 0.00 39 998.2
20260505100121 80 90 3.0 6.0 0.00 0.00 0.00 37 998.0
20260505094619 77 222 3.0 8.0 0.00 0.00 0.00 39 998.3
20260505093115 79 135 1.0 4.0 0.00 0.00 0.00 38 998.2
20260505091613 78 270 2.0 4.0 0.00 0.00 0.00 41 998.2
20260505090113 0 270 4.0 0.0 0.00 0.00 0.00 43 999.3
20260505090111 77 270 4.0 8.0 0.00 0.00 0.00 43 999.3
20260505084610 79 90 1.0 4.0 0.00 0.00 0.00 40 999.2
20260505083107 75 222 2.0 4.0 0.00 0.00 0.00 47 999.5
20260505080108 76 135 1.0 3.0 0.00 0.00 0.00 45 999.4
20260505074607 73 180 1.0 4.0 0.00 0.00 0.00 50 999.5
20260505074605 0 180 1.0 0.0 0.00 0.00 0.00 50 999.5
20260505073105 74 315 3.0 7.0 0.00 0.00 0.00 51 999.5
20260505071603 73 135 4.0 8.0 0.00 0.00 0.00 51 999.5
20260505070103 72 90 3.0 4.0 0.00 0.00 0.00 53 999.6
20260505064601 70 315 4.0 8.0 0.00 0.00 0.00 57 999.8
20260505063101 68 0 4.0 8.0 0.00 0.00 0.00 59 1000.9
20260505061559 66 0 4.0 9.0 0.00 0.00 0.00 62 1001.1
20260505054556 59 180 0.0 0.0 0.00 0.00 0.00 78 1001.5
20260505053053 59 180 0.0 0.0 0.00 0.00 0.00 78 1001.5
20260505051553 57 180 0.0 0.0 0.00 0.00 0.00 82 1001.7
20260505041548 56 180 0.0 0.0 0.00 0.00 0.00 80 1001.7
20260505040046 57 180 0.0 0.0 0.00 0.00 0.00 78 1001.7
20260505034546 57 180 1.0 2.0 0.00 0.00 0.00 77 1001.6
20260505033046 57 315 1.0 3.0 0.00 0.00 0.00 78 1001.7
20260505031543 56 315 0.0 0.0 0.00 0.00 0.00 79 1001.7
20260505030043 57 90 1.0 4.0 0.00 0.00 0.00 76 1002.7
20260505024543 57 90 1.0 4.0 0.00 0.00 0.00 76 1002.6
20260505023041 59 180 0.0 0.0 0.00 0.00 0.00 70 1001.5
20260505021539 60 222 3.0 8.0 0.00 0.00 0.00 69 1002.5
20260505020036 59 180 1.0 3.0 0.00 0.00 0.00 74 1002.6
20260505014536 59 222 0.0 0.0 0.00 0.00 0.00 70 1002.5
20260505011535 59 270 1.0 4.0 0.00 0.00 0.00 70 1002.5
20260505010032 59 180 0.0 0.0 0.00 0.00 0.00 70 1002.6
20260505004530 60 180 0.0 1.0 0.00 0.00 0.00 67 1002.5
20260505003027 61 222 1.0 5.0 0.00 0.00 0.00 64 1002.4
20260505001526 61 0 5.0 11.0 0.00 0.00 0.00 65 1002.4
20260505000026 61 315 3.0 8.0 0.00 0.00 0.00 65 1002.4
20260504234525 62 0 3.0 8.0 0.00 0.00 0.00
20260504233021 62 315 3.0 7.0 0.00 0.00 0.00 62 1003.4
20260504231519 62 45 6.0 11.0 0.00 0.00 0.00 61 1003.4
20260504230017 62 315 6.0 9.0 0.00 0.00 0.00 61 1003.4
20260504224519 63 222 4.0 7.0 0.00 0.00 0.00 60 1003.3
20260504223018 63 315 4.0 10.0 0.00 0.00 0.00 61 1003.3
20260504221518 63 315 4.0 7.0 0.00 0.00 0.00 61 1003.3
20260504221516 63 315 4.0 7.0 0.00 0.00 0.00 61 1003.3
20260504213226 63 222 1.0 1.0 0.00 0.00 0.00 59 1003.3